Location: Centerville
(32.8776°N, 96.6203°W)
Time: 15:30:31
(UTC+00:00)

Cosmos 1634 Rocket - Pass Details

Date: 17 June 2021
Orbit: 960 x 991 km, 82.9° (Epoch: 26 July)

Event Time Altitude Azimuth Distance (km) Brightness Sun altitude
Rises 07:22:46 0° 349° (NNW) 3,701 7.9 -32.2°
Reaches altitude 10° 07:25:19 10° 345° (NNW) 2,752 7.0 -32.1°
Enters shadow 07:30:29 52° 304° (NW) 1,212 4.4 -31.8°
